[[{"header":{"parameterUnit":"m.s-1","parameterCategory":1,"la1":30.2991,"la2":30.254,"lo1":-89.0895,"lo2":-89.0444,"dy":0.0017,"dx":0.0017,"nx":28,"ny":28,"refTime":"2024-08-11T03:00:00:Z","depth":0,"parameterNumber":2,"parameterNumberName":"U-component_of_WINDS"},"data":[0,0,0,0,0,0,0,0,0,0,0,0,0,0,0,0,0,0,0,0,0,0,0,0,0,0,0,0,0,0,0,0,0,0,0,0,0,0,0,0,0,0,0,0,0,0,0,0,0,0,0,0,0,0,0,0,0,0,1.4724,1.4725,0,1.48,1.4801,1.4802,1.4829,1.4829,1.4829,1.4828,1.4911,1.4913,1.4916,0,0,0,0,0,0,0,0,0,0,0,0,0,1.4607,1.4609,1.4724,1.4725,1.4726,1.48,1.4801,1.4802,1.4829,1.4829,1.4829,1.4828,1.491,1.4913,1.4916,0,0,0,0,0,0,0,0,0,0,0,0,0,1.4668,1.4609,1.4723,1.4748,1.4751,1.48,1.4801,1.4802,1.4829,1.4829,1.4828,1.4828,1.4909,1.4913,1.4916,1.4948,0,0,1.4928,1.4929,0,0,0,0,0,0,0,0,1.4664,1.4672,1.4743,1.4746,1.475,1.4804,1.479,1.4851,1.4829,1.48,1.4828,1.4828,1.4876,1.4883,1.4898,1.4951,1.4955,1.4928,1.493,1.4932,1.4933,0,0,0,0,0,0,0,1.466,1.4669,1.4754,1.4745,1.4748,1.4757,1.4765,1.4802,1.484,1.4802,1.4804,1.4813,1.4878,1.4894,1.49,1.4956,1.4928,1.4931,1.4933,1.4935,1.5041,1.5041,0,0,0,0,0,0,1.4651,1.4665,1.4752,1.4756,1.4705,1.4759,1.4768,1.4787,1.4839,1.4847,1.4813,1.4814,1.4888,1.4896,1.4903,1.4944,1.4932,1.4935,1.4937,1.504,1.5041,1.5041,0,0,0,0,0,0,1.4648,1.4658,1.4748,1.4711,1.4723,1.4762,1.4783,1.4789,1.4806,1.4847,1.4855,1.4823,1.4888,1.4898,1.4936,1.4947,1.4937,1.494,1.5039,1.504,1.5041,1.5025,0,0,0,0,0,0,1.4645,1.4657,1.4668,1.4711,1.4725,1.4779,1.4783,1.4791,1.4811,1.4813,1.4858,1.4865,1.4889,1.4931,1.494,1.4952,1.4943,1.5039,1.504,1.5041,1.5024,1.5025,1.5025,0,0,0,0,0,1.464,1.4661,1.4669,1.4679,1.474,1.4779,1.4788,1.4813,1.4812,1.4824,1.4851,1.4864,1.4944,1.4934,1.4945,1.4958,1.5038,1.5039,1.5041,1.5024,1.5025,1.5025,0,0,0,0,0,0,1.462,1.4667,1.4676,1.4711,1.4741,1.4784,1.48,1.4812,1.4844,1.4844,1.4876,1.4886,1.4922,1.4944,1.4932,1.4992,1.4992,1.4996,1.4976,1.4977,1.4977,1.4971,1.4946,0,0,0,0,0,1.4619,1.4646,1.4687,1.4714,1.4728,1.4761,1.478,1.4796,1.4829,1.4842,1.4872,1.4905,1.4937,1.4958,1.4991,1.5028,1.5039,1.5042,1.5043,1.5043,1.5046,1.5068,1.5071,1.5046,1.5046,1.5046,0,0,1.4619,1.4648,1.4663,1.471,1.4735,1.4764,1.4772,1.4802,1.4824,1.4847,1.4885,1.4908,1.4947,1.4985,1.5003,1.5004,1.5055,1.5044,1.5044,1.5047,1.507,1.5072,1.5074,1.5047,1.5047,1.5046,0,0,1.4632,1.4656,1.4682,1.4707,1.4744,1.4766,1.4772,1.4813,1.4829,1.4867,1.4886,1.4913,1.4969,1.4996,1.5016,1.5041,1.5054,1.505,1.5053,1.5074,1.5076,1.5078,1.5088,1.5091,1.5053,1.5053,1.5053,0,1.4627,1.4669,1.4694,1.4723,1.4744,1.4765,1.4792,1.4815,1.4862,1.4877,1.4877,1.4947,1.4975,1.502,1.5026,1.5042,1.5051,1.5046,1.5074,1.5076,1.5078,1.5088,1.5091,1.5052,1.5053,1.5053,1.5053,0,1.4662,1.4691,1.4707,1.475,1.4773,1.4801,1.4831,1.4852,1.4867,1.4889,1.4929,1.4962,1.5002,1.5014,1.5029,1.5062,1.5061,1.5067,1.5068,1.5079,1.5089,1.5093,1.5052,1.5052,1.5052,1.5052,0,0,1.4664,1.472,1.4726,1.4746,1.4789,1.4813,1.4843,1.488,1.4898,1.4929,1.4956,1.5002,1.5008,1.5032,1.5051,1.5069,1.5088,1.5074,1.5075,1.5076,1.5127,1.5122,1.5126,1.5096,1.5097,1.5098,1.5124,0,1.4684,1.4736,1.4759,1.4802,1.483,1.4851,1.4877,1.4907,1.4929,1.4957,1.4982,1.5015,1.5019,1.5034,1.5053,1.5081,1.5099,1.508,1.5123,1.5124,1.5113,1.5131,1.5126,1.5149,1.5128,1.5128,1.5129,0,1.4714,1.4744,1.4789,1.4829,1.4842,1.4864,1.4901,1.4927,1.4963,1.4978,1.5004,1.5022,1.5055,1.5053,1.5101,1.5087,1.5107,1.5123,1.5125,1.513,1.5128,1.5138,1.5157,1.5161,1.5135,1.5134,1.5134,0,1.4712,1.4765,1.4798,1.4815,1.4862,1.4878,1.4899,1.4933,1.4955,1.4987,1.5002,1.5038,1.5059,1.5087,1.5115,1.5111,1.5161,1.5161,1.5175,1.5175,1.5185,1.5184,1.5209,1.5196,1.5196,1.5196,1.5196,0,1.4732,1.4759,1.4798,1.4819,1.485,1.4877,1.4908,1.4931,1.4961,1.4988,1.5009,1.5034,1.5068,1.5098,1.5121,1.5157,1.5166,1.518,1.5186,1.5179,1.5177,1.5192,1.5192,1.5197,1.5197,1.5197,1.5197,0,1.4736,1.4763,1.4801,1.4843,1.4854,1.4875,1.4912,1.4934,1.4956,1.499,1.5,1.5036,1.5073,1.5103,1.5151,1.5166,1.5204,1.5211,1.5192,1.5195,1.5208,1.5207,1.5244,1.525,1.5233,1.5233,1.5233,0,1.4747,1.4768,1.4812,1.4831,1.4851,1.4881,1.4902,1.4931,1.4953,1.4994,1.5012,1.5049,1.508,1.5138,1.517,1.5207,1.5215,1.5225,1.5221,1.5213,1.5216,1.5215,1.5218,1.5226,1.5226,1.5226,1.5226,0,1.4765,1.4777,1.4807,1.4841,1.4866,1.4895,1.4925,1.494,1.4974,1.4998,1.5034,1.5058,1.5107,1.5144,1.5185,1.5208,1.5223,1.5227,1.5232,1.5226,1.5214,1.5221,1.5194,1.5226,1.5226,1.5226,1.5226,1.5226,1.4774,1.4793,1.4827,1.486,1.4885,1.4912,1.4935,1.496,1.4991,1.5031,1.5047,1.5084,1.512,1.5176,1.5199,1.5231,1.5233,1.524,1.5242,1.5244,1.5243,1.5208,1.5238,1.5238,1.5238,1.5238,1.5238,0,1.4793,1.4815,1.4845,1.4885,1.4912,1.4922,1.4955,1.4977,1.5009,1.5041,1.5071,1.5114,1.515,1.5185,1.5223,1.5242,1.525,1.5251,1.525,1.5256,1.5239,1.5231,1.5244,1.5244,1.5244,1.5244,1.5244,1.5244,1.4806,1.484,1.4857,1.4904,1.4927,1.4963,1.4982,1.5008,1.5033,1.5079,1.5109,1.5131,1.5164,1.5205,1.524,1.5249,1.5263,1.5263,1.5274,1.5258,1.5257,1.5256,1.5248,1.5265,1.5265,1.5288,1.5289,1.5289]},{"header":{"parameterUnit":"m.s-1","parameterCategory":1,"la1":30.2991,"la2":30.254,"lo1":-89.0895,"lo2":-89.0444,"dy":0.0017,"dx":0.0017,"nx":28,"ny":28,"refTime":"2024-08-11T03:00:00:Z","depth":0,"parameterNumber":3,"parameterNumberName":"V-component_of_WINDS"},"data":[0,0,0,0,0,0,0,0,0,0,0,0,0,0,0,0,0,0,0,0,0,0,0,0,0,0,0,0,0,0,0,0,0,0,0,0,0,0,0,0,0,0,0,0,0,0,0,0,0,0,0,0,0,0,0,0,0,0,1.4589,1.4589,0,1.459,1.459,1.459,1.4571,1.4571,1.457,1.457,1.4568,1.4568,1.4569,0,0,0,0,0,0,0,0,0,0,0,0,0,1.4568,1.4568,1.4589,1.4589,1.4589,1.459,1.459,1.459,1.4571,1.4571,1.457,1.457,1.4568,1.4568,1.4569,0,0,0,0,0,0,0,0,0,0,0,0,0,1.4574,1.4568,1.4589,1.458,1.4579,1.459,1.459,1.459,1.4571,1.4571,1.457,1.4569,1.4568,1.4568,1.4569,1.4587,0,0,1.4571,1.4571,0,0,0,0,0,0,0,0,1.4573,1.4574,1.4581,1.4581,1.458,1.458,1.4581,1.4589,1.4572,1.4574,1.457,1.4569,1.4572,1.4573,1.4574,1.4587,1.4587,1.4571,1.4571,1.4571,1.4572,0,0,0,0,0,0,0,1.4573,1.4574,1.4589,1.4582,1.4581,1.4574,1.4574,1.4583,1.4577,1.4574,1.4573,1.4573,1.4572,1.4574,1.4574,1.4587,1.4571,1.4571,1.4572,1.4572,1.461,1.4611,0,0,0,0,0,0,1.4574,1.4574,1.4589,1.4589,1.4575,1.4575,1.4575,1.458,1.4577,1.4576,1.4574,1.4572,1.4573,1.4573,1.4574,1.4592,1.4571,1.4572,1.4572,1.461,1.461,1.4611,0,0,0,0,0,0,1.4574,1.4576,1.4589,1.4581,1.4583,1.4577,1.4582,1.4581,1.4583,1.4577,1.4576,1.4577,1.4572,1.4573,1.4583,1.4592,1.4572,1.4573,1.4609,1.461,1.4611,1.4631,0,0,0,0,0,0,1.4573,1.4576,1.4584,1.4582,1.4583,1.46,1.4583,1.4581,1.4584,1.4582,1.458,1.4578,1.4572,1.4582,1.4584,1.4592,1.4573,1.4608,1.4609,1.461,1.4629,1.4632,1.4635,0,0,0,0,0,1.4573,1.459,1.4585,1.4587,1.4593,1.4601,1.4601,1.4594,1.4585,1.4592,1.4588,1.4579,1.4591,1.4584,1.4585,1.4594,1.4607,1.4609,1.461,1.4628,1.4632,1.4635,0,0,0,0,0,0,1.4594,1.459,1.4584,1.4601,1.4601,1.4598,1.4607,1.4599,1.4601,1.4599,1.4589,1.4589,1.46,1.4598,1.459,1.4609,1.4597,1.4599,1.461,1.4613,1.4616,1.4616,1.4574,0,0,0,0,0,1.4601,1.4608,1.4604,1.4619,1.462,1.4613,1.4616,1.461,1.461,1.461,1.4606,1.4605,1.4608,1.4611,1.4614,1.4629,1.4626,1.4635,1.4638,1.464,1.4642,1.4645,1.4649,1.4616,1.4616,1.4616,0,0,1.4615,1.4613,1.4619,1.4623,1.4623,1.4629,1.4614,1.4622,1.4625,1.4611,1.4619,1.4617,1.4615,1.4626,1.4631,1.4625,1.465,1.4642,1.4644,1.4644,1.4647,1.465,1.4653,1.4617,1.4617,1.4617,0,0,1.4643,1.4644,1.4655,1.4654,1.4654,1.4649,1.4651,1.4648,1.4645,1.4654,1.4642,1.4646,1.4653,1.465,1.465,1.4674,1.4664,1.4675,1.4689,1.4693,1.4696,1.4698,1.4703,1.4706,1.4676,1.4676,1.4676,0,1.466,1.467,1.4662,1.467,1.467,1.4657,1.4667,1.4667,1.4667,1.4667,1.466,1.4666,1.4664,1.4673,1.4678,1.4679,1.468,1.4675,1.4696,1.4698,1.47,1.4705,1.4708,1.4678,1.4677,1.4677,1.4677,0,1.4689,1.4696,1.4705,1.4705,1.4707,1.4716,1.4707,1.471,1.4703,1.4698,1.4704,1.4701,1.4702,1.4703,1.4697,1.4711,1.4706,1.4698,1.4686,1.4704,1.4709,1.4711,1.4679,1.4679,1.4678,1.4678,0,0,1.4732,1.4725,1.4729,1.4727,1.4723,1.4727,1.4734,1.4734,1.4735,1.4735,1.4739,1.4743,1.4734,1.4734,1.4727,1.4731,1.4745,1.4721,1.4721,1.4724,1.4756,1.4762,1.4764,1.4739,1.474,1.474,1.4756,0,1.4757,1.4769,1.4761,1.4773,1.4777,1.4763,1.4769,1.4766,1.4761,1.4762,1.4756,1.4758,1.4748,1.4747,1.475,1.4743,1.4751,1.4742,1.474,1.474,1.474,1.4767,1.4774,1.4789,1.4758,1.4758,1.4758,0,1.4789,1.4788,1.4801,1.4794,1.4795,1.48,1.4798,1.48,1.4796,1.4791,1.4789,1.478,1.4784,1.4772,1.4775,1.4769,1.4767,1.4764,1.4764,1.4763,1.475,1.4765,1.4794,1.4795,1.4762,1.4761,1.4761,0,1.4815,1.4818,1.4825,1.4824,1.4817,1.482,1.4817,1.4812,1.4811,1.4809,1.4808,1.4806,1.4805,1.4802,1.4792,1.4785,1.4795,1.4783,1.479,1.479,1.4792,1.4792,1.4819,1.4794,1.4794,1.4794,1.4794,0,1.4843,1.485,1.4837,1.4841,1.4848,1.4837,1.4844,1.4839,1.4834,1.4835,1.4824,1.4825,1.4812,1.4811,1.4803,1.4805,1.4805,1.48,1.4797,1.48,1.48,1.4798,1.4796,1.4794,1.4794,1.4794,1.4794,0,1.4873,1.4865,1.4871,1.4862,1.486,1.4866,1.4857,1.486,1.4853,1.4855,1.4854,1.4843,1.4841,1.4831,1.4827,1.4821,1.4825,1.4822,1.4827,1.4825,1.4831,1.483,1.4858,1.486,1.4834,1.4834,1.4835,0,1.489,1.4896,1.4887,1.4887,1.4884,1.4885,1.4884,1.4873,1.4872,1.4866,1.4868,1.4865,1.4862,1.486,1.485,1.4846,1.4841,1.4851,1.484,1.4842,1.4839,1.4838,1.4837,1.4853,1.4853,1.4853,1.4854,0,1.4921,1.4916,1.4916,1.4913,1.4912,1.4909,1.4906,1.4906,1.4893,1.4892,1.489,1.4888,1.4883,1.488,1.4873,1.4868,1.4858,1.4857,1.4858,1.486,1.4862,1.4859,1.4831,1.4856,1.4856,1.4856,1.4856,1.4856,1.4944,1.4947,1.494,1.4939,1.4935,1.4932,1.4933,1.4925,1.4924,1.4919,1.4912,1.491,1.4902,1.4893,1.4888,1.4885,1.488,1.4882,1.4882,1.4882,1.4883,1.4864,1.4884,1.4884,1.4884,1.4884,1.4884,0,1.4972,1.4967,1.4966,1.4961,1.4959,1.495,1.4945,1.4944,1.4943,1.4937,1.4933,1.4929,1.4925,1.4915,1.4909,1.4909,1.4904,1.4907,1.4907,1.4905,1.4889,1.4888,1.4911,1.4911,1.4911,1.4911,1.4911,1.4911,1.4986,1.499,1.4983,1.4984,1.4978,1.4976,1.4974,1.4969,1.4964,1.4961,1.4957,1.495,1.4942,1.4935,1.493,1.4927,1.4924,1.4929,1.4924,1.4909,1.4907,1.4904,1.4903,1.4929,1.4929,1.494,1.494,1.4941]}]]